Location: Street
(51.1247°N, 2.7429°W)
Time: 01:47:48
(UTC+00:00)

deb Explorer IX - Pass Details

Date: 10 December 2020
Orbit: 536 x 1104 km, 38.8° (Epoch: 20 January)

Event Time Altitude Azimuth Distance (km) Brightness Sun altitude
Rises 15:41:04 0° 260° (W) 3,884 ? 1.9°
Reaches altitude 10° 15:44:27 10° 247° (WSW) 2,878 ? 1.5°
Maximum altitude 15:49:46 24° 198° (SSW) 1,952 ? 0.9°
Drops below altitude 10° 15:54:41 10° 147° (SSE) 2,619 ? 0.3°
Sets 15:57:36 0° 134° (SE) 3,460 ? -0.1°
